Time,TemperatureF,DewpointF,PressureIn,WindDirection,WindDirectionDegrees,WindSpeedMPH,WindSpeedGustMPH,Humidity,HourlyPrecipIn,Conditions,Clouds,dailyrainin,SolarRadiationWatts/m^2,SoftwareType,DateUTC
2013-01-16 00:00:00,50.7,49.3,29.92,ENE,72,4.0,7.0,95,0.06,,-RA,0.68,0.00,VWS V14.01,2013-01-16 05:00:00,
2013-01-16 00:03:00,50.5,49.1,29.91,NE,52,3.0,6.0,95,0.02,,-RA,0.00,0.00,VWS V14.01,2013-01-16 05:03:00,
2013-01-16 00:08:00,50.5,49.1,29.91,ENE,65,4.0,7.0,95,0.02,,-RA,0.00,0.00,VWS V14.01,2013-01-16 05:08:00,
2013-01-16 00:13:00,50.4,49.0,29.91,ENE,66,5.0,7.0,95,0.02,,-RA,0.00,0.00,VWS V14.01,2013-01-16 05:13:00,
2013-01-16 00:18:00,50.2,48.8,29.91,ENE,58,6.0,7.0,95,0.02,,-RA,0.00,0.00,VWS V14.01,2013-01-16 05:18:00,
2013-01-16 00:23:00,50.4,49.0,29.91,ENE,74,4.0,9.0,95,0.02,,-RA,0.00,0.00,VWS V14.01,2013-01-16 05:23:00,
2013-01-16 00:28:00,50.4,49.0,29.91,East,79,3.0,10.0,95,0.02,,-RA,0.00,0.00,VWS V14.01,2013-01-16 05:28:00,
2013-01-16 00:30:00,50.1,48.7,29.90,ENE,73,5.0,9.0,95,0.02,,CLR,0.02,0.00,VWS V14.01,2013-01-16 05:30:00,
2013-01-16 00:33:00,50.2,48.8,29.91,ENE,73,4.0,5.0,95,0.01,,-RA,0.00,0.00,VWS V14.01,2013-01-16 05:33:00,
2013-01-16 00:38:00,50.4,49.0,29.91,NE,53,5.0,6.0,95,0.01,,-RA,0.00,0.00,VWS V14.01,2013-01-16 05:38:00,
2013-01-16 00:43:00,50.2,48.8,29.91,ENE,64,4.0,6.0,95,0.01,,-RA,0.00,0.00,VWS V14.01,2013-01-16 05:43:00,
2013-01-16 00:48:00,50.2,48.8,29.91,ENE,69,3.0,6.0,95,0.01,,-RA,0.00,0.00,VWS V14.01,2013-01-16 05:48:00,
2013-01-16 00:53:00,50.1,48.7,29.91,ENE,77,4.0,6.0,95,0.01,,-RA,0.00,0.00,VWS V14.01,2013-01-16 05:53:00,
2013-01-16 00:58:00,50.1,48.7,29.91,East,80,1.0,6.0,95,0.01,,-RA,0.00,0.00,VWS V14.01,2013-01-16 05:58:00,
2013-01-16 01:00:00,50.1,48.7,29.90,NE,53,5.0,8.0,95,0.02,,CLR,0.02,0.00,VWS V14.01,2013-01-16 06:00:00,
2013-01-16 01:03:00,50.2,48.8,29.91,ENE,68,4.0,5.0,95,0.00,,-RA,0.00,0.00,VWS V14.01,2013-01-16 06:03:00,
2013-01-16 01:08:00,50.1,48.7,29.91,ENE,68,3.0,5.0,95,0.01,,-RA,0.01,0.00,VWS V14.01,2013-01-16 06:08:00,
2013-01-16 01:13:00,50.4,49.0,29.91,NE,36,5.0,7.0,95,0.01,,-RA,0.01,0.00,VWS V14.01,2013-01-16 06:13:00,
2013-01-16 01:18:00,50.2,48.8,29.91,NE,44,4.0,9.0,95,0.01,,-RA,0.01,0.00,VWS V14.01,2013-01-16 06:18:00,
2013-01-16 01:23:00,50.1,48.7,29.91,ENE,68,3.0,9.0,95,0.01,,-RA,0.01,0.00,VWS V14.01,2013-01-16 06:23:00,
2013-01-16 01:28:00,50.1,48.7,29.91,ENE,69,4.0,9.0,95,0.01,,-RA,0.01,0.00,VWS V14.01,2013-01-16 06:28:00,
2013-01-16 01:30:00,49.9,48.5,29.90,ENE,69,3.0,9.0,95,0.03,,CLR,0.03,0.00,VWS V14.01,2013-01-16 06:30:00,
2013-01-16 01:33:00,50.1,48.7,29.90,East,82,5.0,5.0,95,0.02,,-RA,0.02,0.00,VWS V14.01,2013-01-16 06:33:00,
2013-01-16 01:38:00,49.9,48.5,29.90,East,80,4.0,8.0,95,0.02,,-RA,0.02,0.00,VWS V14.01,2013-01-16 06:38:00,
2013-01-16 01:43:00,49.8,48.4,29.90,ENE,61,2.0,8.0,95,0.02,,-RA,0.02,0.00,VWS V14.01,2013-01-16 06:43:00,
2013-01-16 01:48:00,49.9,48.5,29.91,ENE,58,2.0,8.0,95,0.02,,-RA,0.02,0.00,VWS V14.01,2013-01-16 06:48:00,
2013-01-16 01:53:00,49.9,48.5,29.91,NE,53,4.0,8.0,95,0.02,,-RA,0.02,0.00,VWS V14.01,2013-01-16 06:53:00,
2013-01-16 01:58:00,49.9,48.5,29.91,ENE,72,2.0,8.0,95,0.02,,-RA,0.02,0.00,VWS V14.01,2013-01-16 06:58:00,
2013-01-16 02:00:00,49.8,48.4,29.91,East,92,0.0,6.0,95,0.02,,CLR,0.04,0.00,VWS V14.01,2013-01-16 07:00:00,
2013-01-16 02:03:00,50.1,48.7,29.90,ENE,58,3.0,8.0,95,0.02,,OVC003,0.02,0.00,VWS V14.01,2013-01-16 07:03:00,
2013-01-16 02:08:00,50.1,48.7,29.90,ENE,63,3.0,9.0,95,0.02,,OVC003,0.02,0.00,VWS V14.01,2013-01-16 07:08:00,
2013-01-16 02:13:00,49.9,48.5,29.90,NE,51,3.0,9.0,95,0.02,,OVC003,0.02,0.00,VWS V14.01,2013-01-16 07:13:00,
2013-01-16 02:18:00,49.9,48.5,29.90,NE,55,4.0,9.0,95,0.02,,OVC003,0.02,0.00,VWS V14.01,2013-01-16 07:18:00,
2013-01-16 02:23:00,49.9,48.5,29.90,East,84,2.0,9.0,95,0.02,,OVC003,0.02,0.00,VWS V14.01,2013-01-16 07:23:00,
2013-01-16 02:28:00,50.1,48.7,29.90,NNE,29,4.0,9.0,95,0.02,,OVC003,0.02,0.00,VWS V14.01,2013-01-16 07:28:00,
2013-01-16 02:30:00,50.2,49.1,29.91,NE,44,4.0,5.0,96,0.04,,CLR,0.06,0.00,VWS V14.01,2013-01-16 07:30:00,
2013-01-16 02:33:00,49.9,48.5,29.90,ENE,69,2.0,4.0,95,0.01,,OVC003,0.03,0.00,VWS V14.01,2013-01-16 07:33:00,
2013-01-16 02:38:00,49.9,48.5,29.90,ENE,71,4.0,5.0,95,0.01,,OVC003,0.03,0.00,VWS V14.01,2013-01-16 07:38:00,
2013-01-16 02:43:00,49.8,48.4,29.90,ENE,63,4.0,6.0,95,0.01,,OVC003,0.03,0.00,VWS V14.01,2013-01-16 07:43:00,
2013-01-16 02:48:00,49.8,48.4,29.90,NE,55,2.0,6.0,95,0.02,,OVC003,0.04,0.00,VWS V14.01,2013-01-16 07:48:00,
2013-01-16 02:53:00,49.6,48.2,29.90,East,89,0.0,6.0,95,0.02,,OVC003,0.04,0.00,VWS V14.01,2013-01-16 07:53:00,
2013-01-16 02:58:00,49.8,48.4,29.90,East,89,0.0,6.0,95,0.02,,OVC003,0.04,0.00,VWS V14.01,2013-01-16 07:58:00,
2013-01-16 03:00:00,49.8,48.4,29.90,ENE,64,2.0,7.0,95,0.03,,CLR,0.06,0.00,VWS V14.01,2013-01-16 08:00:00,
2013-01-16 03:03:00,49.8,48.4,29.91,East,93,1.0,3.0,95,0.02,,-RA,0.04,0.00,VWS V14.01,2013-01-16 08:03:00,
2013-01-16 03:08:00,49.9,48.8,29.91,East,93,0.0,3.0,96,0.02,,-RA,0.04,0.00,VWS V14.01,2013-01-16 08:08:00,
2013-01-16 03:13:00,49.9,48.8,29.91,East,94,0.0,3.0,96,0.02,,-RA,0.04,0.00,VWS V14.01,2013-01-16 08:13:00,
2013-01-16 03:18:00,49.9,48.8,29.92,East,85,1.0,3.0,96,0.02,,-RA,0.04,0.00,VWS V14.01,2013-01-16 08:18:00,
2013-01-16 03:23:00,49.9,48.8,29.92,East,80,3.0,4.0,96,0.04,,-RA,0.06,0.00,VWS V14.01,2013-01-16 08:23:00,
2013-01-16 03:28:00,50.1,49.0,29.92,NE,44,3.0,4.0,96,0.04,,-RA,0.06,0.00,VWS V14.01,2013-01-16 08:28:00,
2013-01-16 03:30:00,49.6,48.0,29.88,ENE,65,2.0,7.0,94,0.02,,CLR,0.06,0.00,VWS V14.01,2013-01-16 08:30:00,
2013-01-16 03:33:00,50.2,49.1,29.91,NE,44,3.0,4.0,96,0.03,,-RA,0.06,0.00,VWS V14.01,2013-01-16 08:33:00,
2013-01-16 03:38:00,50.2,49.1,29.91,NE,44,3.0,5.0,96,0.03,,-RA,0.06,0.00,VWS V14.01,2013-01-16 08:38:00,
2013-01-16 03:43:00,50.1,49.0,29.91,NE,53,4.0,5.0,96,0.03,,-RA,0.06,0.00,VWS V14.01,2013-01-16 08:43:00,
2013-01-16 03:48:00,49.8,48.4,29.90,NE,55,2.0,7.0,95,0.03,,-RA,0.06,0.00,VWS V14.01,2013-01-16 08:48:00,
2013-01-16 03:53:00,49.8,48.4,29.90,East,90,4.0,7.0,95,0.03,,-RA,0.06,0.00,VWS V14.01,2013-01-16 08:53:00,
2013-01-16 03:58:00,49.8,48.4,29.90,ENE,63,3.0,7.0,95,0.03,,-RA,0.06,0.00,VWS V14.01,2013-01-16 08:58:00,
2013-01-16 04:00:00,49.8,48.4,29.87,NE,35,3.0,7.0,95,0.01,,CLR,0.07,0.00,VWS V14.01,2013-01-16 09:00:00,
2013-01-16 04:03:00,49.6,48.2,29.90,ENE,64,2.0,3.0,95,0.02,,OVC007,0.06,0.00,VWS V14.01,2013-01-16 09:03:00,
2013-01-16 04:08:00,49.8,48.4,29.90,ENE,63,2.0,4.0,95,0.02,,OVC007,0.06,0.00,VWS V14.01,2013-01-16 09:08:00,
2013-01-16 04:13:00,49.6,48.0,29.90,ENE,63,4.0,5.0,94,0.02,,OVC007,0.06,0.00,VWS V14.01,2013-01-16 09:13:00,
2013-01-16 04:18:00,49.6,48.2,29.89,ENE,74,4.0,7.0,95,0.02,,OVC007,0.06,0.00,VWS V14.01,2013-01-16 09:18:00,
2013-01-16 04:23:00,49.6,48.0,29.89,ENE,74,4.0,7.0,94,0.02,,OVC004,0.06,0.00,VWS V14.01,2013-01-16 09:23:00,
2013-01-16 04:28:00,49.6,48.0,29.89,ENE,74,3.0,7.0,94,0.02,,OVC004,0.06,0.00,VWS V14.01,2013-01-16 09:28:00,
2013-01-16 04:30:00,49.6,48.2,29.87,NE,49,3.0,6.0,95,0.01,,CLR,0.07,0.00,VWS V14.01,2013-01-16 09:30:00,
2013-01-16 04:33:00,49.8,48.2,29.88,ENE,65,4.0,5.0,94,0.00,,OVC004,0.06,0.00,VWS V14.01,2013-01-16 09:33:00,
2013-01-16 04:38:00,49.6,48.0,29.88,ENE,65,3.0,5.0,94,0.00,,OVC004,0.06,0.00,VWS V14.01,2013-01-16 09:38:00,
2013-01-16 04:43:00,49.4,47.5,29.88,ENE,65,2.0,5.0,93,0.00,,OVC004,0.06,0.00,VWS V14.01,2013-01-16 09:43:00,
2013-01-16 04:48:00,49.5,47.8,29.88,ENE,65,3.0,5.0,94,0.00,,OVC004,0.06,0.00,VWS V14.01,2013-01-16 09:48:00,
2013-01-16 04:53:00,49.5,47.8,29.88,NE,41,4.0,6.0,94,0.00,,OVC004,0.06,0.00,VWS V14.01,2013-01-16 09:53:00,
2013-01-16 04:58:00,49.8,48.4,29.88,NE,41,4.0,6.0,95,0.01,,OVC004,0.07,0.00,VWS V14.01,2013-01-16 09:58:00,
2013-01-16 05:00:00,49.5,48.1,29.87,East,88,3.0,7.0,95,0.05,,CLR,0.11,0.00,VWS V14.01,2013-01-16 10:00:00,
2013-01-16 05:03:00,49.8,48.4,29.87,NE,35,3.0,3.0,95,0.01,,,0.07,0.00,VWS V14.01,2013-01-16 10:03:00,
2013-01-16 05:08:00,49.6,48.2,29.87,NE,40,1.0,6.0,95,0.01,,,0.07,0.00,VWS V14.01,2013-01-16 10:08:00,
2013-01-16 05:13:00,49.6,48.2,29.87,NE,42,3.0,6.0,95,0.01,,,0.07,0.00,VWS V14.01,2013-01-16 10:13:00,
2013-01-16 05:18:00,49.5,47.8,29.87,NE,51,2.0,6.0,94,0.01,,,0.07,0.00,VWS V14.01,2013-01-16 10:18:00,
2013-01-16 05:23:00,49.5,48.1,29.87,NE,47,2.0,6.0,95,0.01,,,0.07,0.00,VWS V14.01,2013-01-16 10:23:00,
2013-01-16 05:28:00,49.6,48.2,29.87,NE,47,3.0,6.0,95,0.01,,,0.07,0.00,VWS V14.01,2013-01-16 10:28:00,
2013-01-16 05:30:00,49.6,48.2,29.86,NE,53,4.0,7.0,95,0.05,,CLR,0.12,0.00,VWS V14.01,2013-01-16 10:30:00,
2013-01-16 05:33:00,49.6,48.2,29.87,NE,51,4.0,5.0,95,0.01,,,0.07,0.00,VWS V14.01,2013-01-16 10:33:00,
2013-01-16 05:38:00,49.5,48.1,29.87,NE,46,3.0,6.0,95,0.01,,,0.07,0.00,VWS V14.01,2013-01-16 10:38:00,
2013-01-16 05:43:00,49.5,48.1,29.87,East,80,3.0,7.0,95,0.02,,-RA,0.08,0.00,VWS V14.01,2013-01-16 10:43:00,
2013-01-16 05:48:00,49.6,48.2,29.86,East,82,4.0,7.0,95,0.02,,-RA,0.08,0.00,VWS V14.01,2013-01-16 10:48:00,
2013-01-16 05:53:00,49.4,48.0,29.86,East,90,3.0,7.0,95,0.04,,-RA,0.10,0.00,VWS V14.01,2013-01-16 10:53:00,
2013-01-16 05:58:00,49.4,48.0,29.86,ESE,103,3.0,7.0,95,0.05,,-RA,0.11,0.00,VWS V14.01,2013-01-16 10:58:00,
2013-01-16 06:00:00,49.9,48.5,29.88,NNE,27,4.0,7.0,95,0.07,,CLR,0.14,0.00,VWS V14.01,2013-01-16 11:00:00,
2013-01-16 06:03:00,49.5,48.1,29.87,East,88,3.0,4.0,95,0.04,,-RA,0.11,0.00,VWS V14.01,2013-01-16 11:03:00,
2013-01-16 06:08:00,49.6,48.5,29.87,ENE,78,4.0,4.0,96,0.05,,-RA,0.12,0.00,VWS V14.01,2013-01-16 11:08:00,
2013-01-16 06:13:00,49.6,48.5,29.87,ENE,78,0.0,4.0,96,0.05,,-RA,0.12,0.00,VWS V14.01,2013-01-16 11:13:00,
2013-01-16 06:18:00,49.6,48.5,29.87,NE,49,4.0,6.0,96,0.05,,-RA,0.12,0.00,VWS V14.01,2013-01-16 11:18:00,
2013-01-16 06:23:00,49.8,48.4,29.87,NE,50,3.0,6.0,95,0.05,,-RA,0.12,0.00,VWS V14.01,2013-01-16 11:23:00,
2013-01-16 06:28:00,49.8,48.4,29.87,NE,42,4.0,7.0,95,0.05,,-RA,0.12,0.00,VWS V14.01,2013-01-16 11:28:00,
2013-01-16 06:30:00,49.6,48.2,29.90,ENE,59,3.0,7.0,95,0.04,,CLR,0.15,0.00,VWS V14.01,2013-01-16 11:30:00,
2013-01-16 06:33:00,49.6,48.2,29.86,NE,53,3.0,4.0,95,0.05,,-RA,0.12,0.00,VWS V14.01,2013-01-16 11:33:00,
2013-01-16 06:38:00,49.5,47.8,29.86,ENE,57,3.0,6.0,94,0.05,,-RA,0.12,0.00,VWS V14.01,2013-01-16 11:38:00,
2013-01-16 06:43:00,49.5,48.1,29.86,ENE,57,0.0,6.0,95,0.07,,-RA,0.14,0.00,VWS V14.01,2013-01-16 11:43:00,
2013-01-16 06:48:00,49.5,47.8,29.88,ENE,57,0.0,6.0,94,0.07,,-RA,0.14,0.00,VWS V14.01,2013-01-16 11:48:00,
2013-01-16 06:53:00,49.6,48.2,29.88,NE,50,4.0,6.0,95,0.07,,-RA,0.14,0.00,VWS V14.01,2013-01-16 11:53:00,
2013-01-16 06:58:00,49.8,48.4,29.88,NNE,17,4.0,6.0,95,0.07,,-RA,0.14,0.00,VWS V14.01,2013-01-16 11:58:00,
2013-01-16 07:00:00,49.8,48.4,29.90,East,80,6.0,6.0,95,0.04,,CLR,0.16,5.00,VWS V14.01,2013-01-16 12:00:00,
2013-01-16 07:03:00,49.9,48.8,29.88,NE,36,4.0,6.0,96,0.03,,-RA,0.14,0.00,VWS V14.01,2013-01-16 12:03:00,
2013-01-16 07:08:00,50.1,49.0,29.88,NE,51,4.0,7.0,96,0.03,,-RA,0.14,0.00,VWS V14.01,2013-01-16 12:08:00,
2013-01-16 07:13:00,49.9,48.8,29.88,NE,40,6.0,7.0,96,0.03,,-RA,0.14,0.00,VWS V14.01,2013-01-16 12:13:00,
2013-01-16 07:18:00,49.9,48.5,29.89,NE,34,3.0,7.0,95,0.04,,-RA,0.15,0.00,VWS V14.01,2013-01-16 12:18:00,
2013-01-16 07:23:00,49.6,48.2,29.89,North,9,2.0,7.0,95,0.04,,-RA,0.15,0.00,VWS V14.01,2013-01-16 12:23:00,
2013-01-16 07:28:00,49.6,48.2,29.89,NE,34,4.0,7.0,95,0.04,,-RA,0.15,0.00,VWS V14.01,2013-01-16 12:28:00,
2013-01-16 07:30:00,49.9,48.5,29.90,ENE,70,3.0,6.0,95,0.02,,CLR,0.16,16.00,VWS V14.01,2013-01-16 12:30:00,
2013-01-16 07:33:00,49.6,48.2,29.90,ENE,63,4.0,4.0,95,0.03,,-RA,0.15,0.00,VWS V14.01,2013-01-16 12:33:00,
2013-01-16 07:38:00,49.8,48.4,29.90,ESE,103,6.0,6.0,95,0.04,,-RA,0.16,0.00,VWS V14.01,2013-01-16 12:38:00,
2013-01-16 07:43:00,49.9,48.5,29.90,ESE,107,6.0,6.0,95,0.04,,-RA,0.16,0.00,VWS V14.01,2013-01-16 12:43:00,
2013-01-16 07:48:00,49.9,48.5,29.90,ENE,76,4.0,6.0,95,0.04,,-RA,0.16,0.00,VWS V14.01,2013-01-16 12:48:00,
2013-01-16 07:53:00,49.9,48.5,29.90,ESE,104,3.0,6.0,95,0.04,,-RA,0.16,0.00,VWS V14.01,2013-01-16 12:53:00,
2013-01-16 07:58:00,49.9,48.5,29.90,East,94,3.0,6.0,95,0.04,,-RA,0.16,0.00,VWS V14.01,2013-01-16 12:58:00,
2013-01-16 08:00:00,50.5,49.1,29.92,East,92,2.0,5.0,95,0.01,,CLR,0.16,14.00,VWS V14.01,2013-01-16 13:00:00,
2013-01-16 08:03:00,49.8,48.4,29.90,ENE,74,5.0,6.0,95,0.02,,-RA,0.16,5.00,VWS V14.01,2013-01-16 13:03:00,
2013-01-16 08:08:00,49.8,48.4,29.90,ESE,103,4.0,6.0,95,0.02,,-RA,0.16,7.00,VWS V14.01,2013-01-16 13:08:00,
2013-01-16 08:13:00,49.8,48.4,29.90,ESE,103,4.0,6.0,95,0.02,,-RA,0.16,9.00,VWS V14.01,2013-01-16 13:13:00,
2013-01-16 08:18:00,49.8,48.4,29.90,ESE,102,3.0,6.0,95,0.02,,-RA,0.16,11.00,VWS V14.01,2013-01-16 13:18:00,
2013-01-16 08:23:00,50.1,48.7,29.90,ENE,69,5.0,6.0,95,0.02,,OVC010,0.16,12.00,VWS V14.01,2013-01-16 13:23:00,
2013-01-16 08:28:00,49.9,48.5,29.90,ENE,69,2.0,6.0,95,0.02,,OVC010,0.16,16.00,VWS V14.01,2013-01-16 13:28:00,
2013-01-16 08:30:00,50.8,49.1,29.92,NE,38,2.0,5.0,94,0.00,,CLR,0.16,25.00,VWS V14.01,2013-01-16 13:30:00,
2013-01-16 08:33:00,49.8,48.4,29.90,ENE,70,0.0,3.0,95,0.01,,OVC010,0.16,14.00,VWS V14.01,2013-01-16 13:33:00,
2013-01-16 08:38:00,50.1,48.7,29.90,ENE,70,2.0,4.0,95,0.01,,OVC010,0.16,12.00,VWS V14.01,2013-01-16 13:38:00,
2013-01-16 08:43:00,50.2,48.8,29.90,ENE,74,3.0,4.0,95,0.01,,OVC010,0.16,12.00,VWS V14.01,2013-01-16 13:43:00,
2013-01-16 08:48:00,50.4,49.0,29.91,ENE,73,2.0,4.0,95,0.01,,OVC010,0.16,14.00,VWS V14.01,2013-01-16 13:48:00,
2013-01-16 08:53:00,50.4,49.0,29.91,East,83,4.0,5.0,95,0.01,,OVC010,0.16,18.00,VWS V14.01,2013-01-16 13:53:00,
2013-01-16 08:58:00,50.4,48.7,29.91,East,92,1.0,5.0,94,0.01,,OVC010,0.16,21.00,VWS V14.01,2013-01-16 13:58:00,
2013-01-16 09:00:00,51.1,49.4,29.93,NNE,32,5.0,5.0,94,0.00,,CLR,0.16,44.00,VWS V14.01,2013-01-16 14:00:00,
2013-01-16 09:03:00,50.7,49.3,29.92,East,92,0.0,2.0,95,0.00,,OVC010,0.16,14.00,VWS V14.01,2013-01-16 14:03:00,
2013-01-16 09:08:00,50.7,49.0,29.92,NE,51,3.0,4.0,94,0.00,,OVC010,0.16,11.00,VWS V14.01,2013-01-16 14:08:00,
2013-01-16 09:13:00,50.7,49.0,29.92,NNE,19,2.0,5.0,94,0.00,,OVC010,0.16,12.00,VWS V14.01,2013-01-16 14:13:00,
2013-01-16 09:18:00,50.7,49.0,29.92,NNE,19,2.0,5.0,94,0.00,,OVC010,0.16,9.00,VWS V14.01,2013-01-16 14:18:00,
2013-01-16 09:23:00,50.8,49.1,29.92,NNE,19,1.0,5.0,94,0.00,,OVC010,0.16,11.00,VWS V14.01,2013-01-16 14:23:00,
2013-01-16 09:28:00,50.7,48.8,29.92,NE,38,0.0,5.0,93,0.00,,OVC010,0.16,12.00,VWS V14.01,2013-01-16 14:28:00,
2013-01-16 09:30:00,50.8,49.1,29.92,ENE,76,2.0,6.0,94,0.01,,CLR,0.17,84.00,VWS V14.01,2013-01-16 14:30:00,
2013-01-16 09:33:00,50.8,48.8,29.92,NE,38,0.0,3.0,93,0.00,,OVC010,0.16,25.00,VWS V14.01,2013-01-16 14:33:00,
2013-01-16 09:38:00,51.0,49.3,29.92,NE,38,2.0,4.0,94,0.00,,OVC010,0.16,35.00,VWS V14.01,2013-01-16 14:38:00,
2013-01-16 09:43:00,51.0,49.0,29.92,NE,40,2.0,4.0,93,0.00,,OVC010,0.16,30.00,VWS V14.01,2013-01-16 14:43:00,
2013-01-16 09:48:00,51.1,49.4,29.93,NE,49,3.0,5.0,94,0.00,,OVC010,0.16,39.00,VWS V14.01,2013-01-16 14:48:00,
2013-01-16 09:53:00,51.1,49.4,29.93,NNE,23,3.0,5.0,94,0.00,,OVC010,0.16,53.00,VWS V14.01,2013-01-16 14:53:00,
2013-01-16 09:58:00,51.1,49.4,29.93,NE,40,3.0,5.0,94,0.00,,OVC010,0.16,70.00,VWS V14.01,2013-01-16 14:58:00,
2013-01-16 10:00:00,51.3,49.6,29.91,East,91,2.0,7.0,94,0.01,,CLR,0.17,109.00,VWS V14.01,2013-01-16 15:00:00,
2013-01-16 10:03:00,51.1,49.4,29.93,NE,34,4.0,5.0,94,0.00,,-RA,0.16,44.00,VWS V14.01,2013-01-16 15:03:00,
2013-01-16 10:08:00,51.1,49.7,29.93,NE,46,4.0,6.0,95,0.00,,-RA,0.16,49.00,VWS V14.01,2013-01-16 15:08:00,
2013-01-16 10:13:00,51.1,49.7,29.93,NE,47,4.0,6.0,95,0.00,,-RA,0.16,58.00,VWS V14.01,2013-01-16 15:13:00,
2013-01-16 10:18:00,51.0,49.3,29.93,NE,47,3.0,6.0,94,0.00,,-RA,0.16,60.00,VWS V14.01,2013-01-16 15:18:00,
2013-01-16 10:23:00,51.1,49.7,29.93,NE,53,5.0,6.0,95,0.01,,-RA,0.17,83.00,VWS V14.01,2013-01-16 15:23:00,
2013-01-16 10:28:00,51.0,49.6,29.93,ENE,76,4.0,6.0,95,0.01,,-RA,0.17,125.00,VWS V14.01,2013-01-16 15:28:00,
2013-01-16 10:30:00,51.4,49.7,29.91,East,91,0.0,5.0,94,0.01,,CLR,0.17,70.00,VWS V14.01,2013-01-16 15:30:00,
2013-01-16 10:33:00,50.8,49.1,29.92,ENE,76,2.0,3.0,94,0.01,,-RA,0.17,83.00,VWS V14.01,2013-01-16 15:33:00,
2013-01-16 10:38:00,51.0,49.6,29.92,ENE,74,2.0,5.0,95,0.01,,-RA,0.17,100.00,VWS V14.01,2013-01-16 15:38:00,
2013-01-16 10:43:00,51.1,49.7,29.92,ENE,74,5.0,6.0,95,0.01,,-RA,0.17,98.00,VWS V14.01,2013-01-16 15:43:00,
2013-01-16 10:48:00,51.3,49.9,29.91,East,88,6.0,7.0,95,0.01,,-RA,0.17,116.00,VWS V14.01,2013-01-16 15:48:00,
2013-01-16 10:53:00,51.1,49.4,29.91,East,88,4.0,7.0,94,0.01,,-RA,0.17,107.00,VWS V14.01,2013-01-16 15:53:00,
2013-01-16 10:58:00,51.3,49.6,29.91,East,96,1.0,7.0,94,0.01,,-RA,0.17,111.00,VWS V14.01,2013-01-16 15:58:00,
2013-01-16 11:00:00,51.7,49.8,29.90,East,91,0.0,4.0,93,0.00,,CLR,0.17,84.00,VWS V14.01,2013-01-16 16:00:00,
2013-01-16 11:02:00,51.3,49.6,29.91,East,91,2.0,2.0,94,0.01,,OVC004,0.17,105.00,VWS V14.01,2013-01-16 16:02:00,
2013-01-16 11:07:00,51.1,49.2,29.91,East,91,2.0,5.0,93,0.01,,OVC004,0.17,100.00,VWS V14.01,2013-01-16 16:07:00,
2013-01-16 11:12:00,51.1,49.2,29.91,East,91,0.0,5.0,93,0.01,,OVC004,0.17,81.00,VWS V14.01,2013-01-16 16:12:00,
2013-01-16 11:17:00,51.3,49.6,29.91,East,91,0.0,5.0,94,0.01,,OVC004,0.17,95.00,VWS V14.01,2013-01-16 16:17:00,
2013-01-16 11:22:00,51.3,49.6,29.91,East,91,2.0,5.0,94,0.01,,OVC004,0.17,69.00,VWS V14.01,2013-01-16 16:22:00,
2013-01-16 11:27:00,51.3,49.3,29.91,East,91,0.0,5.0,93,0.01,,OVC004,0.17,58.00,VWS V14.01,2013-01-16 16:27:00,
2013-01-16 11:30:00,52.3,50.3,29.88,East,96,5.0,6.0,93,0.00,,CLR,0.17,74.00,VWS V14.01,2013-01-16 16:30:00,
2013-01-16 11:32:00,51.4,49.7,29.91,East,91,0.0,0.0,94,0.00,,OVC004,0.17,70.00,VWS V14.01,2013-01-16 16:32:00,
2013-01-16 11:37:00,51.7,50.0,29.91,East,91,0.0,2.0,94,0.00,,OVC004,0.17,72.00,VWS V14.01,2013-01-16 16:37:00,
2013-01-16 11:42:00,51.7,49.8,29.91,East,91,0.0,3.0,93,0.00,,OVC004,0.17,62.00,VWS V14.01,2013-01-16 16:42:00,
2013-01-16 11:47:00,51.7,49.8,29.90,East,91,2.0,4.0,93,0.00,,OVC004,0.17,109.00,VWS V14.01,2013-01-16 16:47:00,
2013-01-16 11:52:00,51.7,49.8,29.90,East,91,2.0,4.0,93,0.00,,OVC004,0.17,128.00,VWS V14.01,2013-01-16 16:52:00,
2013-01-16 11:57:00,51.7,49.8,29.90,East,91,1.0,4.0,93,0.00,,OVC004,0.17,111.00,VWS V14.01,2013-01-16 16:57:00,
2013-01-16 12:00:00,52.3,50.9,29.87,ESE,105,0.0,7.0,95,0.00,,CLR,0.17,47.00,VWS V14.01,2013-01-16 17:00:00,
2013-01-16 12:02:00,51.7,49.8,29.90,East,91,0.0,2.0,93,0.00,,OVC004,0.17,84.00,VWS V14.01,2013-01-16 17:02:00,
2013-01-16 12:07:00,51.9,49.9,29.90,East,90,2.0,5.0,93,0.00,,OVC004,0.17,88.00,VWS V14.01,2013-01-16 17:07:00,
2013-01-16 12:12:00,51.9,49.7,29.90,East,90,0.0,5.0,92,0.00,,OVC004,0.17,81.00,VWS V14.01,2013-01-16 17:12:00,
2013-01-16 12:17:00,52.0,49.8,29.89,East,90,0.0,5.0,92,0.00,,OVC004,0.17,93.00,VWS V14.01,2013-01-16 17:17:00,
2013-01-16 12:22:00,52.0,50.0,29.89,East,90,3.0,5.0,93,0.00,,OVC004,0.17,100.00,VWS V14.01,2013-01-16 17:22:00,
2013-01-16 12:27:00,52.3,50.3,29.89,ESE,115,5.0,6.0,93,0.00,,OVC004,0.17,93.00,VWS V14.01,2013-01-16 17:27:00,
2013-01-16 12:30:00,52.6,51.2,29.86,ESE,106,2.0,4.0,95,0.00,,CLR,0.17,58.00,VWS V14.01,2013-01-16 17:30:00,
2013-01-16 12:32:00,52.3,50.3,29.88,East,96,3.0,5.0,93,0.00,,OVC004,0.17,76.00,VWS V14.01,2013-01-16 17:32:00,
2013-01-16 12:37:00,52.2,50.2,29.88,East,80,6.0,6.0,93,0.00,,OVC004,0.17,93.00,VWS V14.01,2013-01-16 17:37:00,
2013-01-16 12:42:00,52.2,50.2,29.88,ENE,71,5.0,7.0,93,0.00,,OVC004,0.17,125.00,VWS V14.01,2013-01-16 17:42:00,
2013-01-16 12:47:00,52.2,50.5,29.87,East,80,3.0,7.0,94,0.00,,OVC004,0.17,109.00,VWS V14.01,2013-01-16 17:47:00,
2013-01-16 12:52:00,52.2,50.5,29.87,East,87,3.0,7.0,94,0.00,,OVC004,0.17,107.00,VWS V14.01,2013-01-16 17:52:00,
2013-01-16 12:57:00,52.2,50.5,29.87,East,88,0.0,7.0,94,0.00,,OVC004,0.17,62.00,VWS V14.01,2013-01-16 17:57:00,
2013-01-16 13:00:00,52.9,51.5,29.86,ESE,106,3.0,5.0,95,0.00,,CLR,0.17,69.00,VWS V14.01,2013-01-16 18:00:00,
2013-01-16 13:02:00,52.3,50.9,29.87,ESE,105,0.0,0.0,95,0.00,,OVC004,0.17,47.00,VWS V14.01,2013-01-16 18:02:00,
2013-01-16 13:07:00,52.6,51.2,29.87,ESE,123,2.0,4.0,95,0.00,,OVC004,0.17,33.00,VWS V14.01,2013-01-16 18:07:00,
2013-01-16 13:12:00,52.8,51.4,29.87,SE,128,0.0,4.0,95,0.00,,OVC004,0.17,28.00,VWS V14.01,2013-01-16 18:12:00,
2013-01-16 13:17:00,52.6,51.2,29.89,SSE,156,3.0,4.0,95,0.00,,OVC004,0.17,30.00,VWS V14.01,2013-01-16 18:17:00,
2013-01-16 13:22:00,52.6,51.2,29.89,SSE,155,0.0,4.0,95,0.00,,OVC004,0.17,44.00,VWS V14.01,2013-01-16 18:22:00,
2013-01-16 13:27:00,52.6,51.2,29.89,SSE,155,0.0,4.0,95,0.00,,OVC004,0.17,79.00,VWS V14.01,2013-01-16 18:27:00,
2013-01-16 13:30:00,53.3,51.9,29.88,ESE,107,0.0,4.0,95,0.00,,CLR,0.17,51.00,VWS V14.01,2013-01-16 18:30:00,
2013-01-16 13:32:00,52.6,51.2,29.86,ESE,106,2.0,3.0,95,0.00,,OVC004,0.17,58.00,VWS V14.01,2013-01-16 18:32:00,
2013-01-16 13:37:00,52.6,51.2,29.86,ESE,106,0.0,3.0,95,0.00,,OVC004,0.17,63.00,VWS V14.01,2013-01-16 18:37:00,
2013-01-16 13:42:00,52.6,51.2,29.86,ESE,106,1.0,3.0,95,0.00,,,0.17,63.00,VWS V14.01,2013-01-16 18:42:00,
2013-01-16 13:47:00,52.6,51.2,29.87,ESE,106,0.0,5.0,95,0.00,,,0.17,84.00,VWS V14.01,2013-01-16 18:47:00,
2013-01-16 13:52:00,52.8,51.4,29.87,ESE,106,0.0,5.0,95,0.00,,,0.17,91.00,VWS V14.01,2013-01-16 18:52:00,
2013-01-16 13:57:00,52.9,51.5,29.87,ESE,106,0.0,5.0,95,0.00,,,0.17,88.00,VWS V14.01,2013-01-16 18:57:00,
2013-01-16 14:00:00,53.8,52.7,29.86,North,11,2.0,6.0,96,0.00,,CLR,0.17,67.00,VWS V14.01,2013-01-16 19:00:00,
2013-01-16 14:02:00,52.9,51.5,29.86,ESE,106,2.0,3.0,95,0.00,,,0.17,69.00,VWS V14.01,2013-01-16 19:02:00,
2013-01-16 14:07:00,52.9,51.5,29.86,ESE,106,0.0,4.0,95,0.00,,,0.17,33.00,VWS V14.01,2013-01-16 19:07:00,
2013-01-16 14:12:00,53.1,51.7,29.86,ESE,106,0.0,4.0,95,0.00,,,0.17,33.00,VWS V14.01,2013-01-16 19:12:00,
2013-01-16 14:17:00,53.1,51.7,29.87,ESE,106,0.0,4.0,95,0.00,,,0.17,46.00,VWS V14.01,2013-01-16 19:17:00,
2013-01-16 14:22:00,53.1,51.7,29.87,ESE,106,0.0,4.0,95,0.00,,-RA,0.17,35.00,VWS V14.01,2013-01-16 19:22:00,
2013-01-16 14:27:00,53.3,51.9,29.87,ESE,107,0.0,4.0,95,0.00,,-RA,0.17,44.00,VWS V14.01,2013-01-16 19:27:00,
2013-01-16 14:30:00,53.9,52.2,29.87,East,90,2.0,5.0,94,0.00,,CLR,0.17,62.00,VWS V14.01,2013-01-16 19:30:00,
2013-01-16 14:32:00,53.3,51.9,29.88,ESE,107,0.0,0.0,95,0.00,,-RA,0.17,51.00,VWS V14.01,2013-01-16 19:32:00,
2013-01-16 14:37:00,53.3,51.9,29.88,ESE,107,3.0,4.0,95,0.00,,-RA,0.17,54.00,VWS V14.01,2013-01-16 19:37:00,
2013-01-16 14:42:00,53.3,51.9,29.88,ESE,107,1.0,4.0,95,0.00,,-RA,0.17,60.00,VWS V14.01,2013-01-16 19:42:00,
2013-01-16 14:47:00,53.3,51.9,29.85,ESE,107,2.0,4.0,95,0.00,,-RA,0.17,54.00,VWS V14.01,2013-01-16 19:47:00,
2013-01-16 14:52:00,53.6,52.5,29.85,NE,54,3.0,4.0,96,0.00,,-RA,0.17,46.00,VWS V14.01,2013-01-16 19:52:00,
2013-01-16 14:57:00,53.8,52.7,29.85,WNW,288,2.0,6.0,96,0.00,,-RA,0.17,46.00,VWS V14.01,2013-01-16 19:57:00,
2013-01-16 15:00:00,54.1,52.1,29.86,NE,49,3.0,5.0,93,0.00,,CLR,0.17,160.00,VWS V14.01,2013-01-16 20:00:00,
2013-01-16 15:02:00,53.8,52.7,29.86,NE,38,3.0,3.0,96,0.00,,,0.17,67.00,VWS V14.01,2013-01-16 20:02:00,
2013-01-16 15:07:00,53.8,52.4,29.86,East,80,4.0,5.0,95,0.00,,,0.17,63.00,VWS V14.01,2013-01-16 20:07:00,
2013-01-16 15:12:00,53.8,52.4,29.86,East,87,0.0,5.0,95,0.00,,,0.17,42.00,VWS V14.01,2013-01-16 20:12:00,
2013-01-16 15:17:00,53.8,52.4,29.87,East,90,0.0,5.0,95,0.00,,,0.17,49.00,VWS V14.01,2013-01-16 20:17:00,
2013-01-16 15:22:00,53.8,52.1,29.87,East,90,3.0,5.0,94,0.00,,,0.17,49.00,VWS V14.01,2013-01-16 20:22:00,
2013-01-16 15:27:00,53.8,52.1,29.87,East,90,0.0,5.0,94,0.00,,,0.17,62.00,VWS V14.01,2013-01-16 20:27:00,
2013-01-16 15:30:00,54.5,52.2,29.87,ENE,60,1.0,4.0,92,0.00,,CLR,0.17,79.00,VWS V14.01,2013-01-16 20:30:00,
2013-01-16 15:32:00,53.9,52.2,29.87,East,90,2.0,2.0,94,0.00,,,0.17,62.00,VWS V14.01,2013-01-16 20:32:00,
2013-01-16 15:37:00,54.1,52.4,29.87,NE,48,3.0,5.0,94,0.00,,,0.17,134.00,VWS V14.01,2013-01-16 20:37:00,
2013-01-16 15:42:00,54.1,52.4,29.87,NE,48,2.0,5.0,94,0.00,,,0.17,111.00,VWS V14.01,2013-01-16 20:42:00,
2013-01-16 15:47:00,54.1,52.1,29.87,NE,49,0.0,5.0,93,0.00,,,0.17,142.00,VWS V14.01,2013-01-16 20:47:00,
2013-01-16 15:52:00,54.1,52.1,29.87,NE,49,3.0,5.0,93,0.00,,,0.17,107.00,VWS V14.01,2013-01-16 20:52:00,
2013-01-16 15:57:00,54.1,52.1,29.87,NE,49,1.0,5.0,93,0.00,,,0.17,100.00,VWS V14.01,2013-01-16 20:57:00,
2013-01-16 16:00:00,54.8,52.5,29.86,ENE,65,2.0,4.0,92,0.00,,CLR,0.17,19.00,VWS V14.01,2013-01-16 21:00:00,
2013-01-16 16:02:00,54.1,52.1,29.86,NE,49,4.0,4.0,93,0.00,,OVC011,0.17,160.00,VWS V14.01,2013-01-16 21:02:00,
2013-01-16 16:07:00,54.1,51.8,29.86,NE,55,1.0,4.0,92,0.00,,OVC011,0.17,105.00,VWS V14.01,2013-01-16 21:07:00,
2013-01-16 16:12:00,54.2,51.9,29.86,NE,55,1.0,4.0,92,0.00,,OVC011,0.17,93.00,VWS V14.01,2013-01-16 21:12:00,
2013-01-16 16:17:00,54.2,51.9,29.86,ENE,60,0.0,4.0,92,0.00,,OVC011,0.17,88.00,VWS V14.01,2013-01-16 21:17:00,
2013-01-16 16:22:00,54.4,52.1,29.86,ENE,60,0.0,4.0,92,0.00,,OVC011,0.17,95.00,VWS V14.01,2013-01-16 21:22:00,
2013-01-16 16:27:00,54.5,52.2,29.86,ENE,60,0.0,4.0,92,0.00,,OVC011,0.17,79.00,VWS V14.01,2013-01-16 21:27:00,
2013-01-16 16:30:00,55.0,53.0,29.88,ENE,78,0.0,5.0,93,0.00,,CLR,0.17,0.00,VWS V14.01,2013-01-16 21:30:00,
2013-01-16 16:32:00,54.5,52.2,29.87,ENE,60,2.0,2.0,92,0.00,,OVC011,0.17,72.00,VWS V14.01,2013-01-16 21:32:00,
2013-01-16 16:37:00,54.7,52.7,29.87,ENE,64,1.0,4.0,93,0.00,,OVC011,0.17,46.00,VWS V14.01,2013-01-16 21:37:00,
2013-01-16 16:42:00,54.7,52.4,29.87,ENE,64,0.0,4.0,92,0.00,,OVC011,0.17,53.00,VWS V14.01,2013-01-16 21:42:00,
2013-01-16 16:47:00,54.7,52.4,29.88,ENE,64,0.0,4.0,92,0.00,,OVC011,0.17,56.00,VWS V14.01,2013-01-16 21:47:00,
2013-01-16 16:52:00,54.8,52.5,29.88,ENE,64,0.0,4.0,92,0.00,,OVC011,0.17,32.00,VWS V14.01,2013-01-16 21:52:00,
2013-01-16 16:57:00,54.8,52.5,29.88,ENE,64,0.0,4.0,92,0.00,,OVC011,0.17,19.00,VWS V14.01,2013-01-16 21:57:00,
2013-01-16 17:00:00,54.7,52.7,29.87,East,92,1.0,2.0,93,0.00,,CLR,0.17,0.00,VWS V14.01,2013-01-16 22:00:00,
2013-01-16 17:02:00,54.8,52.5,29.86,ENE,64,1.0,2.0,92,0.00,,OVC004,0.17,19.00,VWS V14.01,2013-01-16 22:02:00,
2013-01-16 17:07:00,54.8,52.5,29.86,ENE,65,0.0,2.0,92,0.00,,OVC004,0.17,21.00,VWS V14.01,2013-01-16 22:07:00,
2013-01-16 17:12:00,55.0,53.0,29.86,ENE,65,0.0,3.0,93,0.00,,OVC004,0.17,18.00,VWS V14.01,2013-01-16 22:12:00,
2013-01-16 17:17:00,54.8,52.5,29.87,ENE,65,0.0,3.0,92,0.00,,OVC004,0.17,19.00,VWS V14.01,2013-01-16 22:17:00,
2013-01-16 17:22:00,54.8,52.5,29.87,ENE,67,3.0,3.0,92,0.00,,OVC004,0.17,16.00,VWS V14.01,2013-01-16 22:22:00,
2013-01-16 17:27:00,55.0,53.0,29.87,ENE,78,0.0,5.0,93,0.00,,OVC004,0.17,9.00,VWS V14.01,2013-01-16 22:27:00,
2013-01-16 17:30:00,54.8,53.1,29.87,East,92,0.0,3.0,94,0.01,,CLR,0.18,0.00,VWS V14.01,2013-01-16 22:30:00,
2013-01-16 17:32:00,55.0,53.0,29.88,ENE,78,0.0,0.0,93,0.00,,OVC004,0.17,0.00,VWS V14.01,2013-01-16 22:32:00,
2013-01-16 17:37:00,54.8,52.8,29.88,East,87,0.0,2.0,93,0.00,,OVC004,0.17,0.00,VWS V14.01,2013-01-16 22:37:00,
2013-01-16 17:42:00,54.8,52.8,29.88,East,88,0.0,2.0,93,0.00,,OVC004,0.17,0.00,VWS V14.01,2013-01-16 22:42:00,
2013-01-16 17:47:00,54.7,52.7,29.88,East,90,0.0,2.0,93,0.00,,OVC004,0.17,0.00,VWS V14.01,2013-01-16 22:47:00,
2013-01-16 17:52:00,54.7,52.7,29.88,East,90,0.0,2.0,93,0.00,,OVC004,0.17,0.00,VWS V14.01,2013-01-16 22:52:00,
2013-01-16 17:57:00,54.7,52.7,29.88,East,90,0.0,2.0,93,0.00,,OVC004,0.17,0.00,VWS V14.01,2013-01-16 22:57:00,
2013-01-16 18:00:00,54.5,53.1,29.88,East,92,0.0,2.0,95,0.01,,CLR,0.18,0.00,VWS V14.01,2013-01-16 23:00:00,
2013-01-16 18:02:00,54.7,52.7,29.87,East,92,1.0,2.0,93,0.00,,-RA,0.17,0.00,VWS V14.01,2013-01-16 23:02:00,
2013-01-16 18:07:00,54.8,53.1,29.87,East,92,0.0,3.0,94,0.00,,-RA,0.17,0.00,VWS V14.01,2013-01-16 23:07:00,
2013-01-16 18:12:00,54.8,53.1,29.87,East,92,0.0,3.0,94,0.00,,-RA,0.17,0.00,VWS V14.01,2013-01-16 23:12:00,
2013-01-16 18:17:00,55.0,53.3,29.87,East,92,0.0,3.0,94,0.00,,-RA,0.17,0.00,VWS V14.01,2013-01-16 23:17:00,
2013-01-16 18:22:00,55.0,53.3,29.87,East,92,0.0,3.0,94,0.01,,-RA,0.18,0.00,VWS V14.01,2013-01-16 23:22:00,
2013-01-16 18:27:00,54.8,53.1,29.87,East,92,0.0,3.0,94,0.01,,-RA,0.18,0.00,VWS V14.01,2013-01-16 23:27:00,
2013-01-16 18:30:00,54.7,53.3,29.88,East,92,0.0,2.0,95,0.01,,CLR,0.18,0.00,VWS V14.01,2013-01-16 23:30:00,
2013-01-16 18:32:00,54.8,53.1,29.87,East,92,0.0,0.0,94,0.01,,-RA,0.18,0.00,VWS V14.01,2013-01-16 23:32:00,
2013-01-16 18:37:00,54.8,53.4,29.87,East,92,0.0,0.0,95,0.01,,-RA,0.18,0.00,VWS V14.01,2013-01-16 23:37:00,
2013-01-16 18:42:00,54.7,53.3,29.87,East,92,0.0,1.0,95,0.01,,-RA,0.18,0.00,VWS V14.01,2013-01-16 23:42:00,
2013-01-16 18:47:00,54.7,53.3,29.88,East,92,0.0,2.0,95,0.01,,-RA,0.18,0.00,VWS V14.01,2013-01-16 23:47:00,
2013-01-16 18:52:00,54.7,53.3,29.88,East,92,0.0,2.0,95,0.01,,-RA,0.18,0.00,VWS V14.01,2013-01-16 23:52:00,
2013-01-16 18:57:00,54.5,53.1,29.88,East,92,0.0,2.0,95,0.01,,-RA,0.18,0.00,VWS V14.01,2013-01-16 23:57:00,
2013-01-16 19:00:00,54.5,53.1,29.89,SSE,161,2.0,4.0,95,0.00,,CLR,0.18,0.00,VWS V14.01,2013-01-17 00:00:00,
2013-01-16 19:02:00,54.5,53.1,29.88,East,92,0.0,0.0,95,0.01,,-RA,0.18,0.00,VWS V14.01,2013-01-17 00:02:00,
2013-01-16 19:07:00,54.5,53.1,29.88,East,92,0.0,2.0,95,0.01,,-RA,0.18,0.00,VWS V14.01,2013-01-17 00:07:00,
2013-01-16 19:12:00,54.5,53.1,29.88,East,92,0.0,2.0,95,0.01,,-RA,0.18,0.00,VWS V14.01,2013-01-17 00:12:00,
2013-01-16 19:17:00,54.5,53.1,29.89,East,92,0.0,2.0,95,0.01,,-RA,0.18,0.00,VWS V14.01,2013-01-17 00:17:00,
2013-01-16 19:22:00,54.5,53.1,29.89,East,92,0.0,2.0,95,0.01,,-RA,0.18,0.00,VWS V14.01,2013-01-17 00:22:00,
2013-01-16 19:27:00,54.7,53.3,29.89,East,92,0.0,2.0,95,0.01,,-RA,0.18,0.00,VWS V14.01,2013-01-17 00:27:00,
2013-01-16 19:30:00,54.4,53.0,29.90,SSE,161,0.0,3.0,95,0.00,,CLR,0.18,0.00,VWS V14.01,2013-01-17 00:30:00,
2013-01-16 19:32:00,54.7,53.3,29.88,East,92,0.0,0.0,95,0.00,,-RA,0.18,0.00,VWS V14.01,2013-01-17 00:32:00,
2013-01-16 19:37:00,54.8,53.4,29.88,East,92,0.0,0.0,95,0.00,,-RA,0.18,0.00,VWS V14.01,2013-01-17 00:37:00,
2013-01-16 19:42:00,54.8,53.4,29.88,East,92,0.0,2.0,95,0.00,,-RA,0.18,0.00,VWS V14.01,2013-01-17 00:42:00,
2013-01-16 19:47:00,54.8,53.4,29.88,SE,134,0.0,4.0,95,0.00,,-RA,0.18,0.00,VWS V14.01,2013-01-17 00:47:00,
2013-01-16 19:52:00,54.8,53.4,29.88,SSE,163,1.0,4.0,95,0.00,,-RA,0.18,0.00,VWS V14.01,2013-01-17 00:52:00,
2013-01-16 19:57:00,54.7,53.3,29.88,SSE,161,0.0,4.0,95,0.00,,-RA,0.18,0.00,VWS V14.01,2013-01-17 00:57:00,
2013-01-16 20:00:00,54.5,53.4,29.91,SSE,161,0.0,0.0,96,0.00,,CLR,0.18,0.00,VWS V14.01,2013-01-17 01:00:00,
2013-01-16 20:02:00,54.5,53.1,29.89,SSE,161,2.0,2.0,95,0.00,,,0.18,0.00,VWS V14.01,2013-01-17 01:02:00,
2013-01-16 20:07:00,54.4,53.0,29.89,SSE,161,0.0,3.0,95,0.00,,,0.18,0.00,VWS V14.01,2013-01-17 01:07:00,
2013-01-16 20:12:00,54.4,53.0,29.89,SSE,161,0.0,3.0,95,0.00,,,0.18,0.00,VWS V14.01,2013-01-17 01:12:00,
2013-01-16 20:17:00,54.4,53.0,29.89,SSE,161,0.0,3.0,95,0.00,,,0.18,0.00,VWS V14.01,2013-01-17 01:17:00,
2013-01-16 20:22:00,54.2,52.8,29.89,SSE,161,0.0,3.0,95,0.00,,,0.18,0.00,VWS V14.01,2013-01-17 01:22:00,
2013-01-16 20:27:00,54.2,52.8,29.89,SSE,161,0.0,3.0,95,0.00,,,0.18,0.00,VWS V14.01,2013-01-17 01:27:00,
2013-01-16 20:30:00,54.4,53.3,29.90,SSE,161,0.0,0.0,96,0.02,,CLR,0.20,0.00,VWS V14.01,2013-01-17 01:30:00,
2013-01-16 20:32:00,54.4,53.0,29.90,SSE,161,0.0,0.0,95,0.00,,,0.18,0.00,VWS V14.01,2013-01-17 01:32:00,
2013-01-16 20:37:00,54.4,53.0,29.90,SSE,161,0.0,0.0,95,0.00,,,0.18,0.00,VWS V14.01,2013-01-17 01:37:00,
2013-01-16 20:42:00,54.4,53.3,29.90,SSE,161,0.0,0.0,96,0.00,,,0.18,0.00,VWS V14.01,2013-01-17 01:42:00,
2013-01-16 20:47:00,54.4,53.3,29.90,SSE,161,0.0,0.0,96,0.00,,,0.18,0.00,VWS V14.01,2013-01-17 01:47:00,
2013-01-16 20:52:00,54.4,53.3,29.90,SSE,161,0.0,0.0,96,0.00,,,0.18,0.00,VWS V14.01,2013-01-17 01:52:00,
2013-01-16 20:57:00,54.5,53.4,29.90,SSE,161,0.0,0.0,96,0.00,,,0.18,0.00,VWS V14.01,2013-01-17 01:57:00,
2013-01-16 21:00:00,54.5,53.4,29.88,SSE,161,0.0,3.0,96,0.02,,CLR,0.20,0.00,VWS V14.01,2013-01-17 02:00:00,
2013-01-16 21:02:00,54.4,53.3,29.91,SSE,161,0.0,0.0,96,0.00,,RA,0.18,0.00,VWS V14.01,2013-01-17 02:02:00,
2013-01-16 21:07:00,54.4,53.3,29.91,SSE,161,0.0,0.0,96,0.00,,RA,0.18,0.00,VWS V14.01,2013-01-17 02:07:00,
2013-01-16 21:12:00,54.4,53.3,29.91,SSE,161,0.0,0.0,96,0.01,,RA,0.19,0.00,VWS V14.01,2013-01-17 02:12:00,
2013-01-16 21:17:00,54.4,53.3,29.90,SSE,161,0.0,0.0,96,0.01,,RA,0.19,0.00,VWS V14.01,2013-01-17 02:17:00,
2013-01-16 21:22:00,54.4,53.3,29.90,SSE,161,0.0,0.0,96,0.02,,-RA,0.20,0.00,VWS V14.01,2013-01-17 02:22:00,
2013-01-16 21:27:00,54.4,53.3,29.90,SSE,161,0.0,0.0,96,0.02,,-RA,0.20,0.00,VWS V14.01,2013-01-17 02:27:00,
2013-01-16 21:30:00,54.7,53.9,29.88,SW,220,0.0,4.0,97,0.03,,CLR,0.21,0.00,VWS V14.01,2013-01-17 02:30:00,
2013-01-16 21:32:00,54.4,53.3,29.90,SSE,161,0.0,0.0,96,0.02,,-RA,0.20,0.00,VWS V14.01,2013-01-17 02:32:00,
2013-01-16 21:37:00,54.5,53.4,29.90,SSE,161,0.0,0.0,96,0.02,,-RA,0.20,0.00,VWS V14.01,2013-01-17 02:37:00,
2013-01-16 21:42:00,54.5,53.4,29.90,SSE,161,0.0,2.0,96,0.02,,-RA,0.20,0.00,VWS V14.01,2013-01-17 02:42:00,
2013-01-16 21:47:00,54.5,53.4,29.89,SSE,161,0.0,2.0,96,0.02,,-RA,0.20,0.00,VWS V14.01,2013-01-17 02:47:00,
2013-01-16 21:52:00,54.5,53.4,29.89,SSE,161,0.0,2.0,96,0.02,,-RA,0.20,0.00,VWS V14.01,2013-01-17 02:52:00,
2013-01-16 21:57:00,54.5,53.4,29.89,SSE,161,0.0,2.0,96,0.02,,-RA,0.20,0.00,VWS V14.01,2013-01-17 02:57:00,
2013-01-16 22:00:00,54.4,53.6,29.87,SW,219,0.0,1.0,97,0.02,,CLR,0.22,0.00,VWS V14.01,2013-01-17 03:00:00,
2013-01-16 22:02:00,54.5,53.4,29.88,SSE,161,0.0,0.0,96,0.02,,-RA,0.20,0.00,VWS V14.01,2013-01-17 03:02:00,
2013-01-16 22:07:00,54.5,53.4,29.88,SSE,163,2.0,2.0,96,0.03,,-RA,0.21,0.00,VWS V14.01,2013-01-17 03:07:00,
2013-01-16 22:12:00,54.5,53.4,29.88,SSE,165,1.0,3.0,96,0.03,,-RA,0.21,0.00,VWS V14.01,2013-01-17 03:12:00,
2013-01-16 22:17:00,54.5,53.7,29.88,SW,220,2.0,4.0,97,0.03,,-RA,0.21,0.00,VWS V14.01,2013-01-17 03:17:00,
2013-01-16 22:22:00,54.5,53.7,29.88,SW,220,1.0,4.0,97,0.03,,-RA,0.21,0.00,VWS V14.01,2013-01-17 03:22:00,
2013-01-16 22:27:00,54.5,53.7,29.88,SW,220,1.0,4.0,97,0.03,,-RA,0.21,0.00,VWS V14.01,2013-01-17 03:27:00,
2013-01-16 22:30:00,54.5,53.7,29.85,SW,219,0.0,0.0,97,0.02,,CLR,0.22,0.00,VWS V14.01,2013-01-17 03:30:00,
2013-01-16 22:32:00,54.7,53.9,29.88,SW,220,0.0,4.0,97,0.03,,-RA,0.21,0.00,VWS V14.01,2013-01-17 03:32:00,
2013-01-16 22:37:00,54.7,53.9,29.88,SW,220,0.0,1.0,97,0.02,,-RA,0.22,0.00,VWS V14.01,2013-01-17 03:37:00,
2013-01-16 22:42:00,54.5,53.7,29.88,SW,220,0.0,1.0,97,0.02,,,0.22,0.00,VWS V14.01,2013-01-17 03:42:00,
2013-01-16 22:47:00,54.4,53.6,29.87,SW,220,0.0,1.0,97,0.02,,,0.22,0.00,VWS V14.01,2013-01-17 03:47:00,
2013-01-16 22:52:00,54.4,53.6,29.87,SW,220,0.0,1.0,97,0.02,,,0.22,0.00,VWS V14.01,2013-01-17 03:52:00,
2013-01-16 22:57:00,54.4,53.6,29.87,SW,219,0.0,1.0,97,0.02,,,0.22,0.00,VWS V14.01,2013-01-17 03:57:00,
2013-01-16 23:00:00,54.7,54.2,29.85,SSW,211,0.0,4.0,98,0.01,,CLR,0.22,0.00,VWS V14.01,2013-01-17 04:00:00,
2013-01-16 23:02:00,54.4,53.6,29.87,SW,219,0.0,1.0,97,0.02,,-RA,0.22,0.00,VWS V14.01,2013-01-17 04:02:00,
2013-01-16 23:07:00,54.4,53.6,29.87,SW,219,0.0,0.0,97,0.02,,-RA,0.22,0.00,VWS V14.01,2013-01-17 04:07:00,
2013-01-16 23:12:00,54.5,53.7,29.87,SW,219,0.0,0.0,97,0.02,,-RA,0.22,0.00,VWS V14.01,2013-01-17 04:12:00,
2013-01-16 23:17:00,54.7,53.9,29.86,SW,219,0.0,0.0,97,0.02,,-RA,0.22,0.00,VWS V14.01,2013-01-17 04:17:00,
2013-01-16 23:22:00,54.7,53.9,29.86,SW,219,0.0,0.0,97,0.02,,,0.22,0.00,VWS V14.01,2013-01-17 04:22:00,
2013-01-16 23:27:00,54.5,53.7,29.86,SW,219,0.0,0.0,97,0.02,,,0.22,0.00,VWS V14.01,2013-01-17 04:27:00,
2013-01-16 23:30:00,54.7,54.2,29.85,SSW,211,0.0,1.0,98,0.00,,CLR,0.00,0.00,VWS V14.01,2013-01-17 04:30:00,
2013-01-16 23:32:00,54.5,53.7,29.85,SW,219,0.0,0.0,97,0.01,,,0.22,0.00,VWS V14.01,2013-01-17 04:32:00,
2013-01-16 23:37:00,55.0,54.5,29.85,SSW,211,0.0,4.0,98,0.01,,,0.22,0.00,VWS V14.01,2013-01-17 04:37:00,
2013-01-16 23:42:00,55.0,54.5,29.85,SSW,211,0.0,4.0,98,0.01,,,0.22,0.00,VWS V14.01,2013-01-17 04:42:00,
2013-01-16 23:47:00,55.0,54.5,29.85,SSW,211,0.0,4.0,98,0.01,,,0.22,0.00,VWS V14.01,2013-01-17 04:47:00,
2013-01-16 23:52:00,55.0,54.5,29.85,SSW,211,0.0,4.0,98,0.01,,,0.22,0.00,VWS V14.01,2013-01-17 04:52:00,
2013-01-16 23:57:00,54.8,54.2,29.85,SSW,211,0.0,4.0,98,0.01,,,0.22,0.00,VWS V14.01,2013-01-17 04:57:00,